Terminal Aerodrome Forecast
Issued by NWS Atlanta, GA

Home | Current Version | Previous Version | Text Only | Print | Product List | Glossary On
Versions: 1 2 3 4 5 6 7 8 9 10 11 12 13 14 15 16 17 18 19 20
360
FTUS42 KFFC 050144 AAA
TAFCSG
TAF AMD
KCSG 050144Z 0502/0524 27006KT P6SM BKN060
     FM051100 30010G18KT P6SM SCT060
     FM051500 31015G25KT P6SM SCT060=

USA.gov is the U.S. government's official web portal to all federal, state and local government web resources and services.